Regional Weather Roundup
Issued by NWS Grand Forks, ND

Home | Current Version | Previous Version | Text Only | Print | Product List | Glossary On
Versions: 1 2 3 4 5 6 7 8 9 10 11 12 13 14 15 16 17 18 19 20 21 22 23 24 25 26 27 28 29 30 31 32 33 34 35 36 37 38 39 40 41 42 43 44 45 46 47 48 49 50
000
ASUS43 KFGF 192331
RWRFGF
PRAIRIE TO PINES  WEATHER ROUNDUP
NATIONAL WEATHER SERVICE EASTERN NORTH DAKOTA/GRAND FORKS ND
600 PM CDT SUN APR 19 2015

 **SATELLITE DATA USED TO AUGMENT SKY COVER AT AUTOMATED STATIONS**
 *****  WEATHER ACROSS EASTERN NORTH DAKOTA  *****

CITY           SKY/WX    TMP DP  RH WIND       PRES   REMARKS
GRAND FORKS    PTSUNNY   46  38  73 N20       29.72F
GRAND FRKS AFB PTSUNNY   46  37  71 N17G24    29.72S
GRAND FRKS NWS   N/A     43 N/A N/A N18         N/A
DEVILS LAKE    PTSUNNY   43  34  70 N24G31    29.78R
FARGO          CLOUDY    48  40  73 N18       29.72F
WAHPETON ARPT  MOCLDY    45  36  70 N17G29    29.73R
$$

 ***** WEATHER ACROSS CENTRAL AND WESTERN NORTH DAKOTA  *****

CITY           SKY/WX    TMP DP  RH WIND       PRES   REMARKS
BISMARCK       CLOUDY    47  29  49 NW24G35   29.90R
MINOT          CLOUDY    44  30  57 NW24G35   29.89R
JAMESTOWN      CLOUDY    48  34  58 NW26G36   29.77S
MINOT AFB      CLOUDY    45  32  61 NW23G32   29.88R
GARRISON         N/A     45  29  53 NW25G35   29.90R
WILLISTON      PTSUNNY   51  21  30 N28G36    29.99F
DICKINSON      SUNNY     46  22  38 NW26G32   29.94S
HETTINGER      PTSUNNY   46  25  43 NW28G38   29.97S
$$

 *****  OTHER AIRPORT OBSERVATIONS IN OUR AREA  *****

CITY           SKY/WX    TMP DP  RH WIND       PRES   REMARKS
WALHALLA       MOCLDY    41  37  87 NW14G28   29.76S
GRAFTON AIRPOR CLOUDY    43  41  93 N20G29    29.74S
VALLEY CITY AR LGT RAIN  45  41  87 N23G33    29.76R
CANDO          CLOUDY    41  36  81 NW25G33   29.80S
CAVALIER APRT  MOCLDY    41  36  81 N22       29.75R
GWINNER        MOCLDY    50  37  62 NW18G30   29.76R
SHEYENNE NWR     N/A     50  38  64 N13       29.95
ROLLA          CLOUDY    39  36  87 NW25G32   29.81S
 ***** THE ABOVE OBSERVATIONS ARE NON NWS ARE NOT QUALITY
       CONTROLLED AND MAY MIS-REPORT RAIN FOR SNOW...
$$

  *****  WEATHER ACROSS NORTHERN MINNESOTA  *****

CITY           SKY/WX    TMP DP  RH WIND       PRES   REMARKS
FLAG ISLAND    DRIZZLE   37  36  93 NW20      29.59S
WARROAD        LGT RAIN  39  36  87 NW15G22   29.63S
ROSEAU         DRIZZLE   41  36  81 NW15      29.64R
HALLOCK        CLOUDY    41  36  81 NW24G31   29.71S
THF RVR FALLS  CLOUDY    41  37  87 NW25G31   29.69R
BAUDETTE       LGT RAIN  39  36  89 NW22G29   29.59R
WASKISH        LGT RAIN  41  39  93 NW17G28   29.60R
CROOKSTON      CLOUDY    41  41 100 N22G29    29.72S
STEPHEN NDAWN    N/A     41  39  93 N20         N/A
GREENBUSH NDAW   N/A     39  37  93 NW22        N/A
$$
  *****  WEATHER ACROSS CENTRAL AND WEST MINNESOTA  *****

CITY           SKY/WX    TMP DP  RH WIND       PRES   REMARKS
FOSSTON        CLOUDY    37  36  93 NW17G26   29.68S
BEMIDJI        DRIZZLE   40  38  93 NW15G22   29.63R
PARK RAPIDS    CLOUDY    46  38  73 NW20      29.63R
ELBOW LAKE     CLOUDY    45  40  84 NW23      29.70R
WADENA         CLOUDY    43  37  81 NW20G28   29.65S
DETROIT LAKES  CLOUDY    41  37  87 NW20G26   29.70R
MOORHEAD       PTSUNNY   45  39  81 N22       29.72F
FERGUS FALLS   CLOUDY    43  36  75 N26G36    29.72R
MORRIS MN      CLOUDY    48  43  81 N31G37    29.69R
STAPLES        CLOUDY    45  39  81 NW15      29.64R
$$
  *****  WEATHER ELSEWHERE ACROSS MINNESOTA  *****

CITY           SKY/WX    TMP DP  RH WIND       PRES   REMARKS
DULUTH         DRZL/FOG  39  38  96 SE5       29.57F VSB 3/4
INTRNTL FALLS  CLOUDY    44  40  85 W3        29.55F
ELY            CLOUDY    41  39  93 S3        29.57S FOG
CLOQUET        CLOUDY    37  37 100 CALM      29.58S FOG
WHEATON        PTSUNNY   46  37  71 NW17G29   29.74S
BRAINERD       CLOUDY    47  41  80 W16G25    29.61R
HIBBING        CLOUDY    45  42  89 NW6       29.56F
ALEXANDRIA     CLOUDY    46  39  76 NW21      29.68S
SAINT CLOUD    CLOUDY    49  41  74 NW18G28   29.62S
MINNEAPOLIS    CLOUDY    52  45  77 NW20      29.59S
$$

  *****  WEATHER ACROSS SOUTH DAKOTA  *****

CITY           SKY/WX    TMP DP  RH WIND       PRES   REMARKS
SIOUX FALLS    PTSUNNY   56  29  35 NW32G43   29.72F
BROOKINGS      PTSUNNY   54  30  40 NW24G32   29.73R
WATERTOWN      LGT RAIN  47  37  68 N22G33    29.74R
HURON          PTSUNNY   54  31  41 N22G30    29.78S
SISSETON         N/A     51  38  60 N20G35    29.72R
ABERDEEN       PTSUNNY   52  38  58 NW15      29.81R
MITCHELL       CLOUDY    54  31  41 NW28G38   29.81R
PIERRE         CLOUDY    49  32  52 NW22G29   29.90S
MOBRIDGE       LGT RAIN  47  36  65 NW23G32   29.86S
RAPID CITY     PTSUNNY   53  18  25 NW28G41   29.98S
$$

  *****  SOME WEATHER IN NEARBY STATES *****

CITY           SKY/WX    TMP DP  RH WIND       PRES   REMARKS
GLASGOW MT     PTSUNNY   52  17  25 NW21G28   30.08F
GREAT FALLS MT CLOUDY    50  21  32 E6        30.11F
CHEYENNE WY    SUNNY     41  21  44 NW20G29   30.05S
SCOTTSBLUFF NE PTSUNNY   51  21  30 N18G31    30.02F
OMAHA NE       CLOUDY    51  44  77 NW15      29.72R
DES MOINES IA  LGT RAIN  53  48  83 N21G36    29.57R
DAVENPORT IA   LGT RAIN  58  53  84 S8        29.47F
CHICAGO IL     LGT RAIN  52  50  93 E9        29.48F FOG
EAU CLAIRE WI  LGT RAIN  51  48  89 CALM      29.53F
LA CROSSE WI   LGT RAIN  54  50  86 NW10      29.50F
$$

  *****  SOME NATIONAL WEATHER *****

CITY           SKY/WX    TMP DP  RH WIND       PRES   REMARKS
LA GUARDIA NY  MOCLDY    51  30  44 SE12      30.20S
RALEIGH NC     LGT RAIN  65  64  97 SE8       29.86F FOG
ATLANTA GA     PTSUNNY   71  64  78 SW13G21   29.71F
NEW ORLEANS LA MOSUNNY   82  62  50 SW13      29.77S
OKLAHOMA CITY  PTSUNNY   61  49  64 NW30G37   29.80R
ALBUQUERQUE NM MOSUNNY   66  20  17 N8        29.95F
SALT LAKE CITY PTSUNNY   67  25  20 NW9       29.96F
LOS ANGELES CA MOSUNNY   62  54  74 W17       29.88F
BOISE ID       SUNNY     68  24  19 NW9       30.00F
SEATTLE WA     MOSUNNY   69  39  33 N13       30.08F
$$

*** WEATHER ACROSS MANITOBA...SASKATCHEWAN AND ONTARIO ***
                ***ONTARIO***

CITY           SKY/WX    TMP DP  RH WIND       PRES   REMARKS
GERALDTON      CLOUDY    41  25  52 E8        29.73F
THUNDER BAY    LGT RAIN  36  34  93 NE10      29.65F
SIOUX LOOKOUT  DRIZZLE   37  37 100 VRB2      29.57F FOG
TORONTO        CLOUDY    52  25  35 E18G28    29.92F
BIG TROUT LK   LGT RAIN  36  36 100 E10G22    29.83F
PICKLE LAKE    LGT SNOW  34  32  93 E18G26    29.67F FOG     WCI  23
DRYDEN         FOG       39  37  93 VRB2      29.56S VSB 3/4
KENORA         LGT RAIN  39  37  93 NW13      29.56F
$$
                *** MANITOBA***

CITY           SKY/WX    TMP DP  RH WIND       PRES   REMARKS
BRANDON        CLOUDY    41  30  65 N25G31    29.84R
DAUPHIN        CLOUDY    36  28  75 N22G29    29.88S
ISLAND LAKE    LGT RAIN  36  34  93 E7        29.70R
PILOT MOUND      N/A     39  32  75 NW21G28     N/A
THE PAS        CLOUDY    32  27  80 N18G26    30.01R WCI  20
THOMPSON       LGT SNOW  28  25  86 NE20      30.00R WCI  15
WINNIPEG       CLOUDY    37  32  81 NW25G32   29.73R
LYNN LAKE      SUNNY     37  18  44 NE12      30.10F
CHURCHILL      MOSUNNY   23  19  86 NE7       30.23F WCI  15
GILLAM         SNOW      27  23  86 NE15G23   30.01R VSB 1/2 WCI  15
$$
                ***SASKATCHEWAN***

CITY           SKY/WX    TMP DP  RH WIND       PRES   REMARKS
ESTEVAN        PTSUNNY   45  28  53 NW22G31   29.97S
KINDERSLEY     PTSUNNY   50  21  32 NW13G21   30.11F
LLOYDMINSTER   PTSUNNY   50  19  29 N10       30.10F
PRINCE ALBERT  MOSUNNY   50  12  22 NE21G26   30.06F
REGINA         MOSUNNY   50  16  25 NW25G39   30.01F
YORKTON        CLOUDY    43  28  56 NW26G35   29.94S
N. BATTLEFORD  PTSUNNY   50  27  40 NW7       30.11F
LA RONGE       SUNNY     46  14  27 E6        30.11F
SASKATOON      MOSUNNY   54  12  19 N15G25    30.08F
SWIFT CURRENT  PTSUNNY   50  23  34 N26       30.07F
$$
NOTE: THESE ARE AUTOMATED STATIONS WITH LIMITED QUALITY CONTROL
      "FAIR" INDICATES FEW OR NO CLOUDS BELOW 12,000 FEET WITH NO
      SIGNIFICANT WEATHER AND/OR OBSTRUCTIONS TO VISIBILITY.
      SKY/WX - SKY CONDITION AND SIGNIFICANT WEATHER.
      TMP - AIR TEMPERATURE.    DP   - DEWPOINT TEMPERATURE.
      RH  - RELATIVE HUMIDITY.  PRES - PRESSURE.
      HX  - HEAT INDEX.         WCI  - WIND CHILL INDEX.
$


USA.gov is the U.S. government's official web portal to all federal, state and local government web resources and services.